STARLINK-11225 [DTC]

Last updated on Mon Sep 30 2024 00:02:04 GMT+0000 (Coordinated Universal Time)

1 60912U 24154K 24273.11260021 .00006783 00000+0 45354-4 0 9993 2 60912 53.1599 208.2550 0001325 82.2030 277.9141 15.76756676 5787
UTC large
Height (km)
Speed (km/s)
/
Latitude / Longitude
Inclination (degrees)
Orbital Period (minutes)
Azimuth
Elevation
Range (km)
Doppler Factor

Next 0 passes for location: London (51.5072 / 0.1276)

Sorry there are no passes over London.